This is the latest recevied weather packets stored in our database for station/object OK2JCZ-6. If no packets are shown the sender has not sent any weather packets the latest 10 day(s).
| Time | Temp. | Humidity | Pressure | Rain* | Wind** | Luminosity | Snow |
|---|---|---|---|---|---|---|---|
| 1787904529 | 22.22° C | 39% | 1015.8 hPa | 0 mm | - | - | - |
| 1787904229 | 22.22° C | 38% | 1015.8 hPa | 0 mm | - | - | - |
| 1787903929 | 22.22° C | 37% | 1016 hPa | 0 mm | - | - | - |
| 1787903629 | 22.22° C | 36% | 1016.1 hPa | 0 mm | - | - | - |
| 1787903329 | 22.22° C | 36% | 1016.1 hPa | 0 mm | - | - | - |
| 1787903029 | 22.22° C | 36% | 1016 hPa | 0 mm | - | - | - |
| 1787902729 | 21.67° C | 36% | 1016.2 hPa | 0 mm | - | - | - |
| 1787902429 | 21.67° C | 36% | 1016.3 hPa | 0 mm | - | - | - |
| 1787902129 | 21.11° C | 37% | 1016.3 hPa | 0 mm | - | - | - |
| 1787901829 | 21.11° C | 38% | 1016.4 hPa | 0 mm | - | - | - |
| 1787901529 | 20.56° C | 38% | 1016.5 hPa | 0 mm | - | - | - |
| 1787901229 | 20.56° C | 38% | 1016.5 hPa | 0 mm | - | - | - |
| 1787900929 | 20° C | 38% | 1016.5 hPa | 0 mm | - | - | - |
| 1787900629 | 20° C | 39% | 1016.6 hPa | 0 mm | - | - | - |
| 1787900329 | 20° C | 40% | 1016.6 hPa | 0 mm | - | - | - |
| 1787900029 | 20° C | 40% | 1016.6 hPa | 0 mm | - | - | - |
| 1787899729 | 20° C | 40% | 1016.6 hPa | 0 mm | - | - | - |
| 1787899429 | 20° C | 40% | 1016.5 hPa | 0 mm | - | - | - |
| 1787899129 | 19.44° C | 40% | 1016.5 hPa | 0 mm | - | - | - |
| 1787898829 | 19.44° C | 40% | 1016.4 hPa | 0 mm | - | - | - |
| 1787898529 | 19.44° C | 40% | 1016.4 hPa | 0 mm | - | - | - |
| 1787898165 | 19.44° C | 41% | 1016.4 hPa | 0 mm | - | - | - |
| 1787897865 | 18.89° C | 41% | 1016.4 hPa | 0 mm | - | - | - |
| 1787897565 | 18.89° C | 41% | 1016.3 hPa | 0 mm | - | - | - |
| 1787897265 | 17.78° C | 42% | 1016.2 hPa | 0 mm | - | - | - |
* Rain latest hour (hover to see other rain measurements)
** Current wind speed in m/s (hover to see current wind gust speed)